Temperature
19 19 20 19 19 19 19 19 19 19 19 19 20 20 20 20 20 20 20 20 20 20 20 20 20 20 20 20 19 19 19 19 19 19 19 19 19 19 19 19 18 18 19
19 19 20 19 19 19 19 19 19 19 19 19 20 20 20 20 20 20 20 20 20 19 19 19 19 19 19 19 19 19 19 19 19 19 19 18 19 19 19 19 18 18 19
19 18 19 19 19 19 19 19 19 19 19 19 19 19 19 19 19 19 19 19 19 19 19 19 19 19 19 19 19 19 19 19 19 19 18 18 18 18 18 19 18 18 18
18 18 18 19 19 19 19 19 19 19 19 19 19 19 19 19 19 19 19 19 19 19 19 19 19 19 19 19 19 19 19 19 19 19 18 18 18 18 18 18 18 18 18
18 18 18 19 19 19 19 19 19 19 19 19 19 19 19 19 19 19 19 19 19 19 19 19 19 19 19 19 19 18 18 18 18 18 17 18 18 18 18 18 18 18 18
18 18 18 18 18 18 18 18 18 19 19 19 19 19 19 19 19 19 19 19 19 19 19 19 18 18 19 18 18 18 18 18 18 17 17 17 17 18 18 18 18 18 18
18 18 18 18 18 18 18 18 18 18 18 18 18 18 18 18 19 19 19 19 18 18 18 18 18 18 18 18 18 18 18 18 17 17 17 17 17 18 18 18 18 18 18
18 18 18 18 18 18 18 18 18 18 18 18 18 18 18 18 18 18 18 18 18 18 18 18 18 18 18 18 18 18 18 18 17 17 17 17 18 18 18 18 18 18 18
18 18 18 17 17 18 18 18 18 18 18 18 18 18 18 18 18 18 18 18 18 18 18 18 18 18 18 18 18 18 18 18 17 17 17 17 18 18 18 18 18 18 18
17 17 17 17 17 17 17 17 18 18 18 18 18 18 18 18 18 18 18 18 18 18 18 18 18 18 18 18 18 18 18 18 17 17 17 17 18 18 18 18 18 18 18
17 17 17 17 17 17 17 17 17 17 17 17 17 17 17 17 17 17 17 17 18 18 18 18 18 18 18 18 18 18 18 17 17 17 17 18 18 18 18 18 18 18 18
16 16 16 16 16 16 16 17 17 17 17 17 17 17 17 17 17 17 17 17 18 18 18 18 18 18 18 17 17 18 17 17 17 17 17 18 18 18 18 18 18 18 18
16 15 15 15 15 15 16 16 16 16 17 17 17 17 17 17 17 17 17 17 17 17 17 17 17 17 17 17 17 17 17 18 18 18 17 18 18 18 18 18 18 18 18
15 15 15 15 15 15 15 15 15 15 16 16 16 16 17 17 17 17 17 17 17 17 17 17 17 17 17 17 17 18 18 17 18 18 17 18 18 18 18 18 17 18 18
15 15 14 14 14 14 14 14 14 15 15 15 16 16 16 16 16 17 17 17 17 17 17 17 17 17 17 17 17 18 18 18 18 17 17 18 18 18 18 17 17 17 18
15 14 14 14 14 13 13 14 14 14 14 14 15 15 15 16 16 16 17 17 17 17 17 17 17 17 17 17 17 17 17 18 17 17 17 17 18 18 18 18 18 17 17
14 14 14 13 13 13 13 13 13 13 14 14 14 14 15 15 16 16 16 16 17 17 17 17 17 17 17 17 17 17 17 17 17 18 17 17 17 18 18 18 17 17 17
14 14 13 13 13 13 13 13 13 13 13 13 14 14 14 14 15 15 16 16 16 16 17 17 17 17 17 17 17 17 17 17 17 18 18 17 17 17 17 18 17 17 17
14 14 13 13 13 12 13 13 13 13 13 13 13 13 14 14 14 15 15 16 16 16 16 16 16 17 17 17 17 17 17 17 17 17 18 18 18 17 17 17 17 17 17
14 13 13 13 12 12 12 12 12 12 13 13 13 13 13 14 14 14 15 15 15 16 16 16 16 17 17 17 17 17 17 17 17 18 18 18 18 18 17 17 17 17 17
14 13 13 13 12 12 12 12 12 12 12 12 12 13 13 13 13 14 14 14 15 15 16 16 16 16 16 16 16 16 17 17 17 17 18 18 18 18 17 17 17 17 17
14 13 13 13 12 12 12 12 12 12 12 12 12 12 13 13 13 13 14 14 14 15 15 15 16 16 16 16 16 16 16 17 17 17 17 17 18 18 18 18 17 17 17
14 13 13 12 12 12 12 12 12 12 12 12 12 12 12 13 13 13 13 14 14 15 15 15 15 16 16 16 16 16 16 16 17 17 18 18 18 18 18 18 18 17 17
14 13 13 12 12 12 11 12 11 11 12 12 12 12 12 12 13 13 13 13 14 14 14 15 15 15 15 15 16 16 16 16 16 17 17 18 18 18 18 18 18 18 17
13 13 12 12 12 11 11 11 11 11 11 11 12 12 12 12 12 12 13 13 13 13 14 14 14 15 15 15 15 15 15 15 16 16 17 17 17 18 18 18 17 17 17
13 13 12 12 12 11 11 11 11 11 11 11 11 12 12 12 12 12 12 13 13 13 13 14 14 14 15 15 15 15 15 15 15 16 16 17 17 17 17 17 17 17 17
Wind_Speed
6 9 10 9 9 9 9 9 8 8 8 8 8 8 8 7 7 6 5 4 4 4 4 4 4 4 4 4 5 5 5 5 5 5 6 6 6 7 7 5 3 9 9
7 9 10 8 9 8 8 8 8 7 7 7 7 7 7 6 6 5 5 4 4 3 3 3 3 3 3 3 4 4 4 4 4 4 3 5 6 6 6 4 5 8 7
6 8 9 8 8 8 7 7 7 7 7 6 7 7 6 6 6 5 5 4 4 3 3 3 2 2 2 2 3 3 3 3 3 2 2 2 7 6 5 5 6 7 7
5 6 6 7 6 7 7 7 7 7 7 7 7 7 7 6 6 5 5 5 4 4 3 3 2 2 2 2 2 1 1 2 2 3 2 2 4 7 5 5 5 5 5
4 3 3 2 4 6 7 7 8 8 8 8 8 8 8 7 7 6 6 5 5 4 4 3 3 2 2 1 1 1 0 1 2 4 2 2 4 6 4 5 4 5 5
3 2 4 3 1 3 5 6 7 8 8 9 8 8 8 8 8 7 7 6 6 5 5 4 3 3 2 2 1 0 1 2 5 1 1 1 4 5 3 4 4 5 5
4 5 6 9 7 6 5 5 7 8 9 9 9 9 9 9 9 9 8 8 7 6 6 5 4 4 3 2 2 1 1 3 3 1 1 1 4 4 3 4 4 4 5
7 7 8 9 10 10 9 8 8 9 9 9 10 10 10 10 10 10 9 9 8 8 7 6 5 5 4 3 3 3 3 6 4 2 2 2 4 2 3 3 4 4 4
9 8 9 9 8 8 9 10 10 9 9 10 10 11 11 11 11 11 11 10 10 9 8 8 7 6 5 4 4 4 3 4 4 3 3 2 4 2 3 3 4 4 5
9 8 8 8 8 8 8 9 10 9 9 9 9 11 12 12 12 13 13 12 11 10 10 9 8 7 6 6 5 5 5 7 7 4 3 4 4 3 4 4 4 5 5
8 8 7 7 7 7 7 8 9 9 8 8 7 9 11 11 13 12 14 11 11 11 11 10 10 9 8 9 7 6 7 8 5 5 3 5 3 4 4 5 5 5 6
9 8 7 6 6 7 6 6 6 7 6 6 7 8 8 9 10 11 9 10 12 12 12 12 11 11 12 11 11 10 9 8 6 6 4 5 4 5 5 5 6 6 6
8 8 8 8 7 7 6 6 5 5 5 6 7 7 8 8 9 10 9 10 12 13 12 12 12 12 11 8 7 9 8 7 6 5 5 6 5 6 7 7 7 7 7
9 9 9 9 9 9 8 7 6 5 5 5 6 7 7 6 6 7 8 9 9 9 9 9 8 10 10 10 10 9 8 7 6 5 5 7 6 6 7 8 8 8 8
9 10 10 10 10 9 8 7 7 6 6 7 6 7 7 6 6 7 7 8 9 9 8 8 8 8 8 8 8 9 8 8 8 7 6 8 8 7 8 8 9 9 9
10 10 10 11 10 10 9 8 7 7 7 8 7 8 8 7 7 7 7 7 7 8 8 7 8 7 7 7 8 8 8 8 9 8 7 9 10 9 8 9 10 10 10
10 10 10 10 10 10 10 9 8 8 8 7 7 8 9 8 8 7 7 7 7 8 9 7 8 7 7 7 8 9 8 8 9 9 8 8 10 12 11 10 10 10 10
10 11 10 10 11 11 10 9 8 8 8 7 7 8 8 9 9 8 7 7 7 7 6 6 6 7 7 7 8 8 8 8 10 9 9 9 9 9 12 12 11 11 11
9 10 10 11 11 11 10 9 8 8 7 7 7 7 8 9 9 8 7 7 8 6 6 7 6 6 6 7 7 7 8 8 9 9 10 11 10 9 10 13 13 11 11
9 9 10 10 10 11 9 8 7 7 7 6 6 6 8 8 8 8 7 8 7 7 7 8 8 7 6 6 6 7 7 8 8 9 10 9 9 11 10 11 12 13 12
9 10 10 11 11 9 8 8 8 8 8 7 6 7 7 8 8 8 7 7 7 7 8 9 8 8 7 6 5 5 7 9 10 9 9 9 10 10 10 11 10 10 12
9 10 10 10 10 10 8 8 7 8 7 7 6 7 7 7 7 6 7 6 7 7 8 9 9 7 6 7 5 4 5 6 8 11 10 9 10 10 11 12 12 11 10
9 9 9 10 10 9 9 7 7 7 6 6 7 7 7 8 7 6 7 7 7 7 8 9 10 10 8 7 7 5 5 7 5 7 12 11 10 8 10 11 12 13 12
8 8 9 9 9 9 9 8 10 8 8 8 8 7 8 7 7 6 7 7 8 7 8 9 10 10 10 8 7 8 6 3 4 5 7 10 11 11 11 10 11 12 13
8 7 8 8 8 8 8 8 8 8 8 8 8 8 8 7 6 6 7 7 8 7 8 9 9 10 9 10 8 7 8 6 7 4 6 8 9 10 11 11 10 10 12
6 6 6 7 8 8 8 8 8 9 9 10 10 9 8 7 6 7 7 7 7 7 8 8 9 10 10 11 10 9 8 7 8 7 6 7 8 9 10 9 10 9 11
Wind_Direction
157 156 149 164 162 160 157 154 154 155 155 154 153 154 156 159 164 163 163 161 157 152 147 136 122 109 98 91 86 86 83 82 80 78 80 89 96 96 96 99 127 104 95
151 155 149 166 166 166 165 163 165 167 167 167 167 166 167 170 172 174 176 175 170 163 154 145 137 120 107 99 89 87 84 84 83 75 84 120 112 102 102 87 38 89 102
149 155 160 168 172 174 175 177 180 182 182 181 182 181 181 184 186 189 191 191 187 182 174 167 162 145 118 106 92 86 87 87 95 89 258 134 119 112 110 106 93 101 106
143 158 163 159 184 187 190 195 199 200 200 200 200 197 195 195 197 199 203 206 205 202 197 190 181 177 148 116 94 84 90 100 110 242 226 85 112 110 116 119 117 113 116
132 137 119 157 201 208 212 214 215 215 215 215 213 210 206 205 209 212 214 217 217 216 213 205 199 195 181 161 129 106 104 145 178 250 67 75 90 107 119 125 129 124 125
102 86 73 44 329 256 242 235 232 229 227 226 223 220 217 215 217 219 219 221 223 224 224 221 215 209 201 197 193 208 216 181 224 161 113 113 103 111 126 129 133 135 136
53 44 41 36 19 353 314 281 263 252 242 236 232 230 229 227 226 226 227 227 229 230 232 230 228 223 217 216 221 224 217 218 244 172 173 136 92 108 130 134 141 147 142
45 39 34 36 23 10 355 340 313 286 269 255 246 242 239 237 235 232 231 232 233 234 235 235 233 234 227 224 228 234 229 248 211 204 182 143 94 133 147 143 143 144 145
46 39 28 20 14 5 358 353 340 322 298 278 263 254 251 246 243 240 235 234 234 233 234 235 233 236 231 229 233 238 234 267 254 224 202 147 127 160 156 142 142 141 141
46 38 28 19 11 359 349 349 340 330 321 304 281 262 257 254 250 245 241 232 234 236 234 234 232 233 233 230 232 235 228 236 236 222 215 128 138 173 163 154 148 145 141
41 32 24 12 4 351 339 342 333 326 321 313 295 277 263 257 253 243 241 232 232 239 237 235 233 232 233 221 223 225 228 235 220 235 206 109 162 176 167 164 161 151 149
24 18 10 1 353 343 337 332 321 318 313 304 298 294 277 264 261 261 254 236 236 239 240 237 234 231 234 224 200 205 227 224 228 223 169 141 188 189 180 176 168 159 154
8 5 359 350 343 336 327 320 315 314 309 294 288 289 283 273 264 260 256 239 233 232 234 225 225 228 227 231 228 217 225 230 223 224 167 156 194 196 188 180 170 164 161
2 355 350 345 337 333 328 319 306 307 308 296 286 282 276 272 263 260 254 250 243 233 231 231 232 228 229 229 227 229 219 228 224 218 168 164 193 198 193 184 177 171 169
356 351 349 340 337 332 327 313 307 302 298 292 282 276 267 260 260 257 254 251 247 243 234 233 234 231 229 234 234 233 230 227 232 214 180 171 192 199 194 188 183 178 174
350 347 345 340 339 333 326 317 311 305 295 288 281 273 267 259 255 257 256 251 250 246 242 240 238 234 231 230 234 231 237 230 230 220 207 181 190 199 198 193 187 183 179
346 344 346 338 339 336 331 325 316 305 298 291 286 280 270 264 261 257 256 251 245 244 241 236 239 235 228 226 231 234 230 232 235 223 210 204 192 192 198 198 193 189 185
343 343 344 340 337 336 332 323 316 311 306 295 289 282 276 270 267 263 258 254 248 242 240 230 225 223 225 225 228 227 227 219 231 228 215 208 202 192 189 195 195 193 192
342 342 343 342 337 336 332 323 318 314 308 301 296 292 288 280 273 267 262 259 254 244 235 230 222 217 221 225 232 233 239 231 225 225 223 215 200 196 190 178 190 194 196
339 340 344 342 340 338 334 330 329 324 319 314 307 302 301 290 279 273 265 259 257 246 235 229 221 215 217 219 235 237 234 238 232 228 230 219 212 202 198 183 187 192 194
340 342 345 345 346 343 340 336 335 334 327 324 320 315 306 297 288 275 269 264 254 248 242 234 225 219 214 206 218 236 238 237 235 224 229 221 215 205 200 195 199 190 188
341 343 342 346 347 346 342 331 326 323 319 322 320 318 312 303 296 283 271 265 257 253 248 237 227 220 212 198 203 214 226 225 234 227 220 222 220 201 208 204 199 197 197
343 343 341 344 345 348 343 338 334 330 320 331 333 327 320 311 300 291 285 277 268 259 249 239 228 222 215 206 205 205 211 218 204 219 219 215 218 207 208 212 208 200 199
343 340 339 345 347 349 345 345 344 340 337 333 329 325 320 314 304 294 285 278 271 264 256 246 233 227 220 214 211 220 231 233 200 203 214 217 214 211 211 210 215 209 202
339 338 338 344 347 349 347 345 337 340 337 333 333 332 327 322 314 306 296 284 275 266 260 256 250 235 226 220 212 207 219 230 231 218 209 207 212 216 215 211 210 213 207
338 337 336 340 345 346 343 343 344 341 338 338 340 338 331 325 319 317 307 290 279 272 266 260 254 245 236 229 221 214 208 206 213 216 221 211 212 215 215 215 217 211 208
Height
1553 1553 1553 1554 1556 1557 1557 1558 1559 1560 1560 1561 1561 1561 1562 1562 1562 1562 1562 1561 1561 1561 1560 1560 1560 1559 1559 1559 1558 1557 1557 1556 1555 1555 1554 1553 1553 1553 1552 1552 1553 1553 1552
1554 1554 1554 1556 1557 1558 1558 1559 1560 1560 1561 1561 1562 1562 1562 1562 1562 1562 1562 1562 1561 1561 1561 1560 1560 1560 1559 1559 1559 1558 1558 1557 1556 1556 1555 1555 1554 1554 1553 1553 1553 1554 1553
1555 1556 1556 1557 1558 1558 1559 1560 1560 1561 1561 1561 1562 1562 1562 1562 1562 1562 1562 1561 1561 1561 1561 1560 1560 1560 1560 1559 1559 1559 1558 1558 1557 1557 1556 1557 1555 1554 1554 1554 1554 1554 1554
1557 1557 1558 1558 1558 1559 1560 1560 1560 1561 1561 1561 1561 1561 1561 1561 1561 1561 1561 1561 1561 1561 1560 1560 1560 1560 1560 1559 1559 1559 1559 1558 1558 1557 1558 1558 1557 1555 1555 1555 1555 1555 1555
1558 1558 1558 1558 1559 1559 1560 1560 1560 1560 1560 1561 1561 1561 1561 1561 1561 1561 1560 1560 1560 1560 1560 1560 1560 1559 1559 1559 1559 1559 1559 1559 1558 1558 1558 1557 1557 1556 1556 1556 1556 1556 1556
1558 1558 1558 1558 1558 1559 1559 1559 1559 1559 1559 1559 1560 1560 1560 1560 1559 1559 1559 1559 1559 1559 1559 1559 1559 1559 1559 1559 1559 1559 1559 1559 1559 1559 1558 1558 1558 1556 1556 1556 1556 1556 1557
1558 1558 1558 1557 1558 1558 1558 1558 1558 1558 1558 1558 1558 1558 1558 1558 1558 1558 1558 1558 1558 1558 1558 1558 1558 1558 1558 1558 1558 1558 1559 1559 1559 1559 1559 1558 1558 1557 1557 1557 1557 1557 1557
1558 1557 1557 1557 1556 1556 1556 1556 1556 1556 1556 1556 1556 1556 1556 1556 1556 1556 1556 1556 1556 1557 1557 1557 1557 1557 1557 1557 1557 1558 1558 1558 1559 1559 1559 1558 1557 1557 1557 1557 1557 1558 1558
1557 1556 1556 1556 1555 1555 1554 1554 1554 1554 1553 1553 1554 1554 1554 1554 1554 1554 1554 1555 1555 1555 1555 1555 1555 1556 1556 1556 1556 1557 1557 1558 1559 1559 1559 1558 1557 1557 1557 1557 1558 1558 1558
1557 1556 1555 1554 1554 1553 1552 1551 1551 1551 1551 1551 1551 1551 1551 1551 1551 1552 1552 1552 1552 1553 1553 1554 1554 1554 1554 1555 1555 1556 1556 1557 1558 1558 1559 1558 1557 1557 1557 1557 1558 1558 1558
1558 1556 1555 1553 1552 1551 1550 1549 1549 1548 1548 1548 1548 1548 1548 1548 1549 1549 1549 1550 1550 1551 1551 1551 1552 1552 1553 1553 1554 1554 1555 1557 1557 1558 1558 1557 1556 1557 1557 1557 1558 1558 1559
1559 1557 1555 1553 1551 1549 1548 1547 1546 1545 1544 1544 1544 1544 1545 1545 1546 1546 1547 1547 1547 1548 1548 1549 1550 1550 1551 1553 1553 1553 1555 1556 1556 1557 1557 1556 1556 1556 1556 1557 1557 1558 1559
1559 1557 1554 1552 1550 1548 1546 1544 1543 1541 1540 1540 1540 1540 1541 1541 1542 1542 1543 1544 1544 1545 1546 1546 1547 1549 1550 1552 1553 1553 1554 1555 1555 1556 1556 1555 1555 1555 1556 1556 1557 1558 1559
1558 1555 1553 1551 1549 1547 1545 1542 1540 1539 1537 1537 1537 1537 1537 1537 1538 1539 1539 1540 1541 1542 1543 1544 1545 1547 1548 1549 1551 1552 1553 1553 1554 1554 1554 1554 1554 1555 1555 1556 1557 1558 1559
1557 1554 1552 1549 1547 1545 1542 1539 1538 1537 1535 1534 1533 1532 1533 1533 1533 1534 1535 1536 1537 1538 1539 1541 1542 1544 1545 1547 1548 1550 1551 1551 1552 1553 1553 1552 1553 1554 1555 1555 1556 1557 1558
1556 1553 1550 1547 1545 1542 1540 1538 1536 1534 1532 1531 1530 1529 1529 1529 1529 1530 1530 1531 1532 1534 1536 1537 1539 1540 1542 1543 1545 1547 1548 1549 1550 1551 1552 1552 1552 1553 1553 1554 1555 1557 1558
1555 1552 1549 1546 1543 1540 1537 1535 1533 1531 1530 1528 1527 1526 1525 1525 1525 1525 1526 1527 1528 1529 1531 1533 1535 1536 1538 1540 1541 1543 1545 1546 1548 1550 1550 1551 1551 1551 1552 1553 1554 1556 1557
1553 1551 1547 1544 1541 1538 1535 1532 1530 1529 1527 1525 1524 1523 1522 1522 1522 1522 1522 1523 1524 1525 1527 1528 1530 1532 1534 1536 1538 1540 1542 1543 1545 1547 1548 1549 1550 1551 1551 1552 1553 1554 1556
1552 1549 1546 1543 1539 1536 1533 1530 1528 1526 1523 1522 1521 1520 1519 1518 1518 1518 1518 1519 1520 1521 1522 1524 1526 1528 1530 1532 1535 1537 1539 1541 1543 1544 1546 1548 1549 1549 1550 1550 1551 1553 1554
1551 1548 1545 1542 1538 1534 1531 1529 1526 1524 1522 1520 1518 1516 1515 1514 1514 1514 1514 1515 1515 1516 1518 1519 1521 1523 1525 1528 1531 1533 1535 1537 1539 1541 1543 1545 1546 1548 1549 1550 1550 1551 1552
1550 1547 1544 1541 1537 1533 1530 1527 1524 1522 1519 1517 1515 1513 1511 1511 1510 1510 1510 1511 1511 1512 1513 1515 1517 1519 1521 1523 1526 1528 1531 1533 1536 1538 1540 1541 1543 1545 1546 1548 1549 1550 1551
1549 1546 1543 1540 1536 1533 1529 1526 1523 1520 1517 1515 1512 1510 1509 1508 1507 1507 1507 1507 1507 1508 1509 1510 1512 1514 1516 1518 1521 1524 1526 1529 1530 1533 1535 1537 1540 1542 1544 1546 1547 1548 1550
1547 1545 1542 1538 1535 1532 1528 1525 1522 1519 1516 1514 1511 1508 1506 1505 1504 1503 1503 1503 1503 1504 1505 1506 1507 1509 1511 1513 1516 1520 1521 1523 1525 1528 1531 1533 1536 1538 1540 1543 1545 1546 1548
1546 1543 1541 1538 1535 1531 1528 1525 1521 1518 1515 1513 1510 1507 1505 1503 1501 1500 1500 1500 1500 1500 1501 1502 1503 1504 1506 1508 1511 1514 1516 1518 1521 1522 1525 1528 1531 1534 1536 1539 1541 1544 1545
1545 1542 1539 1537 1534 1530 1527 1524 1521 1518 1515 1512 1509 1506 1503 1501 1499 1498 1497 1496 1496 1496 1496 1497 1498 1500 1501 1503 1505 1508 1510 1513 1516 1518 1519 1523 1526 1529 1532 1534 1537 1540 1542
1544 1541 1538 1536 1533 1529 1526 1523 1520 1517 1514 1511 1508 1505 1502 1499 1497 1495 1494 1493 1492 1492 1493 1493 1494 1495 1496 1498 1500 1502 1505 1507 1510 1513 1515 1517 1520 1524 1527 1529 1532 1535 1537